Flag for U.S.A. Weather past 2 weeks in Mansfield, Texas, U.S.A.

42 °F

Low clouds.

Feels Like: 42 °F
Forecast: 43 / 53 °F
Wind: No wind

Location: Burleson-Rendon

Current Time: Nov 30, 2015 at 4:21:30 AM

Latest Report: Nov 30, 2015 at 3:55 AM

Visibility: 10 mi

Pressure: 30.04 "Hg

Humidity: 96%

Dew point: 41 °F

Location of MansfieldLocation

Historic Weather in Mansfield — Graph


Mansfield temperature yesterday

Maximum temperature yesterday: 43 °F (at 1:58 PM)
Minimum temperature yesterday: 39 °F (at 12:15 AM)
Average temperature yesterday: 40 °F

Past Weeks' High & Low Weather Summary

High75 °F (Nov 25, 2:55 PM)100% (Nov 16, 6:50 AM)30.38 "Hg (Nov 16, 6:50 AM)
Low27 °F (Nov 22, 6:46 AM)28% (Nov 22, 12:50 PM)29.51 "Hg (Nov 17, 3:15 AM)
Average53 °F78%30.08 "Hg
* Reported Nov 15 3:15 AM — Nov 30 3:15 AM, Mansfield, Weather by CustomWeather, © 2015

Note: Actual official high and low records may vary slightly from our data, if they occured in-between our weather recording intervals... More about our weather records


Mansfield weather history for previous 24 hours

Time TempWeatherWind HumidityBarometerVisibility
3:15 AM
Mon, Nov 30
42 °FLow clouds.3 mph96%30.04 "Hg7 mi
2:55 AM42 °FLow clouds.No wind96%30.05 "Hg10 mi
2:35 AM42 °FLow clouds.No wind96%30.05 "Hg7 mi
12:55 AM42 °FFog.5 mph97%30.08 "Hg2 mi
12:35 AM42 °FFog.5 mph95%30.08 "Hg3 mi
11:55 PM
Sun, Nov 29
42 °FFog.5 mph96%30.09 "Hg2 mi
11:15 PM41 °FDrizzle. Low clouds.3 mph96%30.10 "Hg2 mi
10:55 PM42 °FRain. Low clouds.6 mph96%30.11 "Hg2 mi
10:35 PM42 °FDrizzle. Low clouds.5 mph96%30.11 "Hg2 mi
10:15 PM42 °FDrizzle. Low clouds.5 mph96%30.12 "Hg2 mi
9:35 PM42 °FFog.3 mph94%30.11 "Hg3 mi
9:15 PM42 °FLow clouds.5 mph93%30.12 "Hg7 mi
8:55 PM42 °FOvercast.3 mph94%30.12 "Hg7 mi
8:15 PM42 °FOvercast.6 mph93%30.13 "Hg10 mi
6:45 PM43 °FDrizzle. Mostly cloudy.10 mph87%30.14 "Hg7 mi
4:50 PM43 °FLow clouds.9 mph87%30.13 "Hg10 mi
3:49 PM43 °FLow clouds.9 mph87%30.11 "Hg10 mi
2:52 PM43 °FLow clouds.13 mph87%30.14 "Hg10 mi
1:58 PM43 °FLight rain. Low clouds.6 mph87%30.14 "Hg7 mi
12:59 PM41 °FRain. Low clouds.5 mph93%30.17 "Hg5 mi
11:59 AM39 °FLight rain. Low clouds.No wind100%30.20 "Hg4 mi
10:50 AM39 °FHeavy rain. Low clouds.7 mph93%30.23 "Hg3 mi
9:57 AM39 °FHeavy rain. Low clouds.7 mph93%30.25 "Hg2 mi
8:50 AM39 °FHeavy rain. Low clouds.9 mph93%30.25 "Hg2 mi
7:50 AM39 °FRain. Mostly cloudy.10 mph93%30.22 "Hg4 mi
6:50 AM39 °FRain. Low clouds.7 mph93%30.23 "Hg4 mi
5:35 AM39 °FDrizzle. Low clouds.5 mph95%30.19 "Hg4 mi
5:15 AM39 °FDrizzle. Low clouds.6 mph95%30.18 "Hg5 mi
4:55 AM39 °FLight rain. Overcast.3 mph95%30.19 "Hg7 mi
4:35 AM39 °FRain. Overcast.6 mph95%30.20 "Hg5 mi
4:15 AM39 °FDrizzle. Mostly cloudy.7 mph92%30.22 "Hg7 mi
Weather by CustomWeather, © 2015

See weather overviewHow to use our weather pages